Location: Zagreb
(45.8000°N, 16.0000°E)
Time: 19:23:28
(UTC+01:00)

Oscar 11 - Pass Details

Date: 05 November 2020
Orbit: 613 x 625 km, 97.6° (Epoch: 01 December)

Event Time Altitude Azimuth Distance (km) Brightness Sun altitude
Rises 17:44:37 0° 180° (S) 2,879 10.6 -12.2°
Reaches altitude 10° 17:46:51 10° 186° (S) 1,976 9.8 -12.6°
Maximum altitude 17:51:01 49° 261° (W) 804 8.1 -13.3°
Drops below altitude 10° 17:55:12 10° 337° (NNW) 1,985 9.8 -14.0°
Sets 17:57:28 0° 343° (NNW) 2,894 10.6 -14.4°
